Location: Waco, TX
(31.5480°N, 97.1670°W)
Time: 13:51:16

ISS - Pass Details

Date: 20 March 2018
Orbit: 403 x 406 km, 51.6° (Epoch: 23 March)

Event Time Altitude Azimuth Distance (km) Brightness Sun altitude
Rises 05:04:11 0° 332° (NNW) 2,324 - -31.7°
Reaches altitude 10° 05:07:01 10° 359° (N) 1,461 - -31.1°
Maximum altitude 05:08:53 14° 34° (NNE) 1,233 - -30.8°
Exits shadow 05:10:03 12° 57° (ENE) 1,327 -0.4 -30.5°
Drops below altitude 10° 05:10:43 10° 68° (ENE) 1,457 -0.1 -30.4°
Sets 05:13:32 0° 95° (E) 2,313 0.9 -29.8°
